Regional Weather Roundup
Issued by NWS

Home | Current Version | Previous Version | Graphics & Text | Print | Product List | Glossary On
Versions: 1 2 3 4 5 6 7 8 9 10 11 12 13 14 15 16 17 18 19 20 21 22 23 24 25 26 27 28 29 30 31 32 33 34 35 36 37 38 39 40 41 42 43 44 45 46 47 48 49 50
470
ASUS45 KSLC 310410
RWRUT

UTAH REGIONAL WEATHER ROUNDUP
NATIONAL WEATHER SERVICE SALT LAKE CITY UT
1000 PM MDT MON MAY 30 2016

UTZ001>011-023>025-310500-

NORTHERN UTAH

CITY           SKY/WX    TMP DP  RH WIND       PRES   REMARKS
BRIGHAM CITY     N/A     64  32  30 NW13      30.06R
HILL AFB       CLEAR     65  38  36 NW7       30.07R
LOGAN          CLEAR     51  43  74 NW10      30.07R
OGDEN          CLEAR     64  38  38 NW10      30.04S
PROVO AIRPORT  PTCLDY    66  43  42 NW12      30.05R
SALT LAKE CITY PTCLDY    71  42  35 NW8       30.03R
VERNAL         CLOUDY    64  29  26 N7        30.03R
WENDOVER       CLEAR     70  36  28 N15       30.06R
HEBER CITY     PTCLDY    48  36  61 E7        30.10R
WEST JORDAN    CLEAR     64  34  32 W6        30.06R

$$

UTZ012>022-026-027-310500-

SOUTHERN/CENTRAL UTAH

CITY           SKY/WX    TMP DP  RH WIND       PRES   REMARKS
BLANDING       PTCLDY    57  25  28 N7        30.10S
BRYCE CANYON   CLEAR     45  33  63 SE3       30.20R
CEDAR CITY     PTCLDY    58  32  37 NE5       30.05R
DELTA          PTCLDY    63  36  36 NE6       30.05R
HANKSVILLE     PTCLDY    68  30  24 W5        29.97R
MILFORD        CLEAR     63  29  27 NW10      30.04R
MOAB/CYNLANDS  PTCLDY    75  29  18 SW8       29.94R
PRICE          PTCLDY    65  30  27 NW17      30.07R
ST GEORGE      PTCLDY    81  32  17 NE6       29.90R
KANAB          MOCLDY    64  37  36 CALM      30.05R

$$

REGIONAL REPORTS     COLORADO/ARIZONA

CITY           SKY/WX    TMP DP  RH WIND       PRES   REMARKS
CRAIG, CO      CLOUDY    57  41  55 S3        30.11R
GRAND JUNCTION PTCLDY    62  30  29 NE5       30.00R
RIFLE          CLOUDY    52  38  58 SE6       30.08R
MONTROSE       CLOUDY    61  34  36 E13       30.09R
CORTEZ         CLEAR     56  30  37 N5        30.05R
PAGE, AZ       PTCLDY    76  32  20 N6        29.95R
GRAND CANYON   PTCLDY    47  27  45 CALM      30.12R
KINGMAN        CLEAR     69  25  19 SE9       29.91S
FLAGSTAFF      CLOUDY    53  27  36 CALM      30.13S

$$

REGIONAL REPORTS    NEVADA/IDAHO/WYOMING

CITY           SKY/WX    TMP DP  RH WIND       PRES   REMARKS
LAS VEGAS, NV  MOCLDY    91  29  11 CALM      29.77R
ELY            CLEAR     59  32  36 W6        30.15R
ELKO           CLEAR     65  34  31 NE5       30.12R
POCATELLO, ID  CLEAR     61  27  27 SW14      30.08R
BURLEY         CLEAR     59  32  36 SW12      30.07R
EVANSTON, WY   CLOUDY    53  38  56 CALM      30.19R
ROCK SPRINGS   CLOUDY    55  29  36 W12       30.16R
KEMMERER         N/A     46  30  53 N13       30.20R

$$




USA.gov is the U.S. government's official web portal to all federal, state and local government web resources and services.